Temperature
3 3 2 2 2 2 2 2 2 2 2 2 2 1 1 1 1 1 1 1 1 1 1 1 1 1 1 1 1 1 1 1 1 1 1 1 1 1 1 2 2 2 2
2 2 2 2 2 2 1 2 2 2 1 1 1 1 1 1 1 1 1 1 1 1 1 1 1 1 0 0 0 0 0 0 0 1 1 1 0 1 1 1 1 1 1
2 1 1 1 1 1 1 1 1 1 1 1 1 1 1 1 0 0 0 0 0 0 0 0 0 0 0 0 -0 -0 -0 0 0 0 0 0 0 0 0 0 1 1 1
1 1 1 1 1 1 1 1 1 1 1 0 0 0 0 -0 -0 -0 -0 -0 -0 -0 -0 0 0 0 0 -0 -0 -0 -0 -0 -0 -0 -0 -0 -0 -0 -0 -0 -0 0 0
1 0 1 1 0 0 0 0 0 0 -0 -0 -0 -0 -0 -1 -1 -1 -1 -1 -1 -1 -1 -1 -0 -0 -1 -1 -1 -1 -1 -1 -1 -1 -1 -1 -1 -1 -1 -1 -1 -0 0
0 0 0 -0 -0 -0 -0 -0 -0 -1 -1 -1 -1 -1 -1 -1 -1 -1 -1 -1 -1 -1 -1 -1 -1 -1 -1 -1 -1 -1 -1 -1 -1 -1 -1 -1 -1 -1 -1 -1 -1 -1 -1
-0 -0 -1 -1 -1 -1 -1 -1 -1 -1 -1 -1 -1 -1 -1 -1 -1 -1 -2 -2 -2 -2 -1 -1 -1 -1 -1 -1 -1 -1 -1 -1 -1 -1 -1 -1 -1 -1 -1 -1 -1 -1 -1
-1 -1 -1 -1 -1 -1 -1 -1 -1 -1 -2 -2 -2 -2 -2 -2 -2 -2 -2 -2 -2 -2 -2 -2 -2 -2 -1 -2 -2 -2 -2 -2 -2 -2 -2 -2 -2 -2 -2 -2 -2 -2 -2
-1 -1 -1 -1 -2 -2 -2 -2 -2 -2 -2 -2 -2 -2 -2 -2 -2 -2 -2 -2 -2 -2 -2 -2 -2 -2 -2 -2 -2 -2 -2 -2 -2 -2 -2 -2 -2 -2 -2 -2 -2 -2 -2
-1 -1 -2 -2 -2 -2 -2 -2 -2 -2 -2 -2 -2 -2 -2 -2 -2 -2 -3 -3 -3 -3 -3 -3 -3 -3 -3 -3 -3 -3 -3 -2 -2 -2 -2 -2 -2 -2 -2 -2 -2 -2 -2
-2 -2 -2 -2 -2 -2 -2 -2 -3 -3 -3 -3 -3 -3 -3 -3 -3 -3 -3 -3 -3 -3 -3 -3 -3 -3 -3 -3 -3 -3 -3 -3 -3 -2 -2 -2 -2 -2 -2 -2 -2 -2 -2
-2 -2 -2 -2 -2 -2 -2 -3 -3 -3 -3 -3 -3 -3 -3 -3 -3 -3 -3 -4 -4 -4 -3 -3 -3 -3 -3 -3 -3 -3 -3 -3 -3 -3 -3 -3 -3 -2 -2 -2 -2 -2 -2
-3 -3 -3 -3 -3 -3 -3 -3 -3 -3 -4 -4 -4 -4 -4 -4 -4 -4 -4 -4 -4 -4 -4 -4 -4 -4 -4 -3 -3 -3 -3 -3 -3 -3 -3 -3 -3 -3 -3 -3 -3 -3 -3
-3 -3 -3 -3 -3 -3 -3 -3 -3 -4 -4 -4 -4 -4 -4 -4 -4 -4 -4 -4 -4 -4 -4 -4 -4 -4 -4 -4 -4 -4 -4 -3 -3 -3 -3 -3 -3 -3 -3 -3 -3 -3 -3
-3 -3 -3 -3 -4 -3 -4 -4 -4 -4 -4 -4 -4 -4 -4 -4 -4 -4 -4 -4 -4 -4 -4 -4 -4 -4 -4 -4 -4 -4 -4 -4 -4 -4 -4 -4 -4 -4 -4 -4 -3 -3 -3
-3 -4 -4 -4 -4 -4 -4 -4 -4 -4 -4 -4 -4 -4 -4 -5 -5 -5 -5 -5 -5 -5 -4 -5 -5 -4 -4 -5 -5 -4 -4 -4 -4 -4 -4 -4 -4 -4 -4 -4 -4 -4 -3
-4 -4 -4 -4 -4 -4 -4 -4 -4 -4 -4 -4 -4 -4 -4 -5 -5 -5 -5 -5 -5 -5 -5 -5 -5 -5 -5 -5 -5 -5 -5 -4 -4 -4 -4 -4 -4 -4 -4 -4 -4 -4 -4
-4 -4 -4 -4 -4 -4 -5 -5 -5 -5 -5 -4 -5 -5 -5 -5 -5 -5 -5 -5 -5 -5 -5 -5 -5 -5 -5 -5 -5 -5 -5 -5 -5 -5 -5 -5 -5 -4 -4 -4 -4 -4 -4
-4 -4 -4 -5 -5 -5 -5 -5 -5 -5 -5 -5 -5 -5 -5 -5 -5 -5 -5 -5 -5 -5 -5 -5 -5 -5 -5 -5 -5 -5 -5 -5 -5 -5 -5 -5 -5 -4 -4 -4 -4 -4 -4
-5 -5 -5 -5 -5 -5 -5 -5 -5 -5 -5 -5 -5 -5 -5 -5 -5 -5 -5 -5 -5 -5 -5 -5 -5 -5 -5 -5 -5 -5 -5 -5 -5 -5 -5 -5 -5 -4 -4 -4 -4 -4 -4
-5 -5 -5 -5 -5 -5 -5 -5 -5 -5 -5 -6 -6 -6 -6 -6 -6 -6 -6 -5 -5 -5 -5 -5 -5 -5 -5 -5 -5 -5 -5 -5 -5 -5 -5 -5 -4 -4 -4 -4 -4 -4 -4
-5 -5 -5 -5 -5 -5 -5 -5 -5 -5 -6 -6 -6 -6 -6 -6 -6 -6 -6 -6 -5 -5 -5 -5 -5 -5 -5 -5 -5 -5 -5 -5 -5 -5 -4 -4 -4 -4 -4 -4 -4 -4 -4
-5 -5 -5 -5 -6 -6 -6 -6 -6 -6 -6 -6 -6 -6 -6 -6 -6 -6 -6 -6 -6 -5 -5 -5 -5 -5 -5 -5 -5 -5 -5 -5 -4 -4 -4 -4 -4 -4 -4 -4 -4 -4 -4
-5 -5 -5 -6 -6 -6 -6 -6 -6 -6 -6 -6 -6 -6 -6 -6 -6 -6 -6 -6 -6 -5 -5 -5 -5 -5 -5 -5 -5 -5 -5 -4 -4 -4 -4 -4 -4 -4 -4 -4 -4 -4 -4
-6 -6 -6 -6 -6 -6 -6 -6 -6 -6 -6 -6 -6 -6 -6 -6 -6 -6 -6 -6 -6 -6 -5 -5 -5 -5 -5 -5 -5 -5 -4 -4 -4 -4 -4 -4 -4 -4 -4 -4 -4 -4 -4
-6 -6 -6 -6 -6 -6 -6 -6 -6 -6 -6 -6 -6 -6 -6 -6 -6 -6 -6 -6 -6 -6 -5 -5 -5 -5 -5 -5 -5 -4 -4 -4 -4 -4 -4 -4 -4 -4 -4 -4 -4 -4 -4
Wind_Speed
3 3 3 3 3 4 4 4 4 4 4 4 4 4 4 5 5 5 6 6 6 6 6 7 7 7 6 5 5 5 6 6 7 7 7 7 8 7 7 8 9 9 8
3 3 3 4 4 4 4 4 4 4 4 4 4 5 5 5 5 6 6 6 7 7 7 7 7 6 7 6 5 6 6 6 7 8 7 7 8 8 7 8 7 7 8
3 3 3 4 4 4 5 4 4 5 4 4 4 5 5 5 5 6 6 6 6 6 7 7 7 7 7 6 6 6 5 5 5 6 7 6 6 6 7 7 8 7 7
3 4 4 4 4 4 4 4 4 4 4 4 4 4 4 5 5 5 5 5 5 5 6 6 7 7 7 7 6 6 5 5 5 5 6 6 6 6 6 6 7 6 6
4 4 4 4 4 4 4 4 4 4 4 4 4 4 4 4 4 4 4 5 5 5 5 6 6 7 8 7 6 5 5 5 5 5 5 5 6 5 5 5 7 6 6
4 4 4 4 4 4 4 4 4 4 3 3 4 4 4 3 4 5 4 5 5 5 5 5 5 5 6 7 8 7 7 6 6 5 5 6 7 7 6 5 6 6 5
4 4 4 4 4 4 4 4 4 4 3 3 4 4 4 4 4 4 5 5 5 5 5 4 4 3 4 4 4 5 6 7 8 7 7 8 8 7 6 6 6 6 6
4 4 4 4 4 4 4 4 4 3 3 4 3 3 3 4 4 4 4 4 4 4 4 4 4 4 3 3 3 4 4 5 6 6 6 7 7 6 6 6 6 6 6
4 4 4 4 4 4 4 4 3 3 3 3 3 3 3 3 3 4 4 3 3 4 4 4 4 4 4 4 3 3 4 4 4 5 7 7 7 7 6 4 4 4 5
4 4 4 4 4 4 4 3 3 3 3 3 3 3 3 3 3 4 4 3 3 3 3 4 4 4 4 4 3 3 4 4 4 4 4 5 5 5 6 5 4 5 5
4 3 3 3 3 3 3 3 3 3 3 3 2 2 3 3 3 4 4 3 3 3 3 3 3 4 4 4 4 4 5 5 4 4 4 4 4 3 4 4 4 4 5
3 3 3 3 2 2 2 2 3 3 3 2 2 2 2 2 3 3 4 4 4 3 3 3 3 3 4 5 4 4 5 4 3 3 3 3 3 4 4 4 4 4 5
2 2 2 2 2 2 2 2 2 2 2 2 1 1 1 1 2 3 4 4 4 3 3 3 3 4 4 3 3 4 3 3 2 2 3 3 3 4 4 3 4 3 4
2 2 1 1 1 1 2 2 2 2 2 2 2 2 1 1 2 2 2 2 2 2 2 2 2 3 2 2 2 2 2 2 2 3 3 3 3 3 3 3 3 3 3
2 2 1 1 1 1 1 2 2 3 3 3 2 2 2 2 3 3 3 2 2 2 1 1 1 1 1 1 1 1 2 2 2 2 3 3 3 3 3 3 3 3 3
2 2 1 1 1 1 1 1 1 2 2 3 3 2 2 3 4 4 3 3 3 2 2 1 1 1 2 2 2 2 2 2 2 3 3 3 3 3 3 3 3 3 3
3 2 2 2 2 1 1 1 0 0 0 1 1 1 2 2 3 3 3 2 2 2 1 1 2 2 2 2 2 2 2 2 3 3 3 3 3 3 3 3 3 3 3
3 3 2 2 2 2 2 2 1 1 0 1 1 0 1 1 2 2 2 1 1 1 1 1 2 2 2 2 2 2 3 3 3 3 3 3 3 3 3 3 3 3 3
2 2 2 2 2 2 2 2 1 1 1 0 1 1 1 1 1 1 1 1 1 1 1 1 2 2 2 2 2 3 3 3 3 3 3 3 3 3 3 3 3 3 3
2 3 2 2 2 2 2 2 1 1 1 1 0 1 1 1 1 1 1 1 1 1 2 2 2 2 2 2 3 3 3 3 3 3 3 3 3 3 3 3 3 3 2
2 2 3 2 2 2 2 2 1 1 1 1 1 1 1 1 1 2 2 2 2 2 2 2 2 2 2 2 3 3 3 3 3 3 3 3 3 3 3 3 3 3 2
2 2 2 2 2 2 2 2 1 1 1 1 1 1 1 1 1 1 2 2 2 2 2 2 3 3 3 3 3 3 4 4 3 3 3 3 3 3 3 2 2 2 2
3 3 3 2 2 3 2 2 1 1 1 1 1 1 1 1 1 1 2 2 2 2 2 2 3 3 3 3 4 4 4 4 4 4 4 4 4 3 3 2 2 2 1
3 3 3 3 2 2 2 2 2 1 1 1 1 1 1 1 1 2 2 2 2 3 3 3 3 4 5 4 4 4 4 5 5 4 5 5 4 3 2 2 2 2 1
3 3 3 3 3 2 2 2 2 1 1 1 1 1 1 1 2 2 2 2 3 3 4 4 3 4 5 6 5 5 6 7 7 5 4 4 3 3 3 2 1 1 1
3 3 3 2 2 2 2 2 2 2 1 1 1 1 1 1 2 2 2 2 3 3 3 3 4 5 6 5 6 7 7 7 6 6 4 3 3 2 2 1 1 1 1
Wind_Direction
231 233 237 245 247 248 245 243 243 246 247 251 254 255 256 255 250 246 245 248 246 248 249 247 248 251 252 253 248 248 248 250 262 276 280 288 286 283 285 287 287 287 284
239 241 242 248 247 243 245 244 242 242 243 247 249 250 252 253 251 248 248 248 247 248 249 249 251 253 256 257 255 253 252 252 259 272 281 286 286 287 286 288 289 286 284
244 242 242 249 248 246 244 244 243 240 241 241 242 246 249 251 250 250 249 248 249 251 251 251 253 254 256 257 259 258 257 259 260 267 279 282 282 286 290 288 287 285 288
245 245 245 249 251 246 244 244 243 241 240 240 244 249 251 252 253 255 251 249 250 254 256 257 256 254 255 257 258 255 254 259 260 265 272 279 282 285 288 289 289 287 289
254 251 251 254 252 247 242 242 243 241 241 243 245 250 252 250 252 255 249 248 252 258 262 263 263 261 260 258 255 250 247 252 258 261 270 278 280 285 283 286 289 292 294
258 256 259 258 252 243 240 238 240 240 240 237 238 242 247 249 253 257 260 252 251 255 264 270 270 266 265 261 256 256 249 248 253 258 264 270 275 278 284 283 287 294 297
263 263 264 261 253 248 241 235 235 239 240 239 239 240 248 252 253 256 261 259 255 256 262 268 273 273 273 271 268 268 266 261 258 260 263 268 273 276 280 282 286 289 288
262 266 263 258 254 251 244 239 240 240 239 239 239 242 254 256 253 263 261 262 264 264 264 264 268 273 272 277 281 285 283 278 272 268 268 275 279 282 278 279 286 291 291
260 262 261 256 250 247 244 246 245 240 241 241 235 238 249 258 253 262 265 267 264 267 267 265 265 266 274 280 278 284 291 292 284 275 279 285 293 293 288 282 281 281 286
264 265 264 255 245 243 244 246 246 241 242 240 239 242 247 256 256 258 264 258 264 271 271 266 263 270 276 279 272 270 277 285 297 301 296 293 292 292 289 277 274 278 284
269 266 263 258 248 244 244 240 235 236 239 235 239 247 249 254 255 259 269 266 263 271 271 269 265 268 281 285 283 272 277 290 289 289 293 299 301 299 300 295 286 278 276
265 260 261 261 254 242 235 233 229 223 222 226 232 257 261 259 259 267 276 276 279 268 268 271 270 271 282 287 287 291 298 297 286 285 289 297 304 307 307 307 300 295 289
261 259 261 261 247 230 223 222 217 211 215 220 222 248 277 288 278 274 274 276 281 275 272 275 282 279 277 278 280 288 287 280 279 282 285 294 300 302 304 305 307 303 306
247 253 251 248 241 220 216 215 207 207 209 211 222 241 263 279 283 285 282 281 271 275 280 271 281 289 273 271 280 281 274 276 281 284 288 295 303 304 302 302 304 311 318
237 237 236 238 236 218 215 216 216 219 219 223 232 240 245 265 282 291 293 290 294 284 289 278 275 274 282 291 294 293 289 285 285 287 290 295 300 300 299 302 306 311 305
223 222 224 226 221 211 205 198 203 233 244 254 262 261 264 273 283 285 292 300 306 294 278 255 252 262 274 280 284 290 292 292 292 286 282 283 289 293 298 304 307 305 304
220 221 218 214 211 208 202 191 173 87 181 272 274 271 271 278 285 293 298 307 294 279 255 247 251 257 269 276 281 288 291 290 285 280 279 282 285 287 294 301 303 301 302
220 217 214 207 204 201 198 193 185 176 179 351 331 291 299 289 298 302 304 313 288 302 273 264 268 271 270 276 282 286 289 288 284 281 281 282 281 284 288 292 292 292 294
218 209 201 195 197 195 189 182 174 171 167 137 3 2 14 345 335 338 334 284 258 274 287 285 282 280 276 278 281 284 284 283 284 284 284 284 281 279 284 289 289 292 290
210 202 201 195 190 186 181 176 172 169 167 181 257 319 330 332 330 336 333 312 287 281 285 291 290 286 284 281 281 282 279 278 281 283 286 286 283 278 279 283 283 280 283
197 189 190 188 183 184 180 180 177 178 185 206 247 273 288 270 268 277 287 293 293 292 290 291 290 286 280 276 277 275 276 278 280 283 284 283 283 280 277 275 277 277 280
187 181 180 179 179 179 178 179 177 181 190 210 245 267 301 291 272 277 287 293 292 290 290 285 281 280 275 274 274 274 275 277 281 284 283 281 280 277 273 268 272 274 276
178 173 172 173 174 171 169 168 175 184 196 216 235 251 265 282 292 297 301 303 305 301 297 288 282 282 282 278 274 271 271 271 273 274 276 274 271 268 265 263 263 263 268
178 175 172 171 169 169 172 178 182 187 199 216 238 256 266 282 297 306 309 308 305 301 297 290 283 281 286 289 283 278 275 276 278 270 266 263 265 263 256 253 255 252 253
175 173 173 175 175 176 179 182 186 196 208 222 237 254 271 284 296 303 308 306 304 298 297 295 290 288 291 292 290 286 282 282 281 276 266 258 256 257 253 251 249 239 220
166 169 172 173 176 180 183 188 197 208 218 235 247 252 262 274 284 292 296 298 304 300 298 298 297 298 298 295 293 292 288 286 284 282 270 247 245 247 237 222 209 188 175
Height
1454 1454 1454 1454 1453 1453 1453 1453 1453 1453 1453 1453 1453 1452 1452 1452 1452 1452 1452 1452 1452 1452 1452 1452 1451 1452 1452 1452 1451 1451 1451 1450 1449 1447 1446 1444 1443 1441 1439 1438 1436 1434 1432
1451 1451 1450 1450 1450 1449 1449 1449 1449 1449 1449 1449 1449 1448 1448 1448 1448 1448 1447 1447 1447 1447 1447 1447 1447 1447 1447 1447 1447 1446 1446 1445 1445 1443 1441 1440 1439 1437 1435 1433 1431 1429 1427
1448 1447 1447 1446 1446 1445 1445 1445 1445 1445 1445 1445 1444 1444 1444 1444 1444 1444 1443 1443 1443 1443 1443 1443 1442 1442 1442 1442 1442 1441 1441 1441 1440 1439 1437 1436 1434 1433 1431 1429 1427 1424 1422
1444 1444 1443 1442 1442 1441 1441 1441 1441 1441 1440 1440 1440 1440 1440 1440 1440 1439 1439 1439 1439 1439 1439 1438 1438 1438 1437 1437 1437 1437 1437 1436 1436 1435 1433 1432 1431 1429 1427 1425 1422 1420 1418
1441 1440 1439 1438 1438 1437 1437 1436 1436 1436 1436 1436 1436 1436 1436 1436 1436 1436 1435 1435 1435 1435 1435 1434 1433 1433 1433 1433 1433 1433 1433 1432 1432 1431 1429 1428 1427 1425 1423 1421 1419 1416 1413
1437 1436 1435 1435 1434 1433 1433 1433 1432 1432 1432 1432 1432 1432 1432 1432 1432 1432 1432 1432 1432 1431 1431 1430 1430 1429 1429 1429 1429 1429 1429 1429 1428 1427 1426 1425 1423 1422 1420 1418 1416 1413 1410
1433 1432 1432 1431 1430 1430 1429 1429 1429 1428 1429 1429 1429 1429 1428 1429 1429 1429 1429 1429 1428 1428 1428 1427 1426 1426 1426 1425 1425 1425 1425 1425 1425 1424 1422 1421 1420 1419 1417 1415 1413 1410 1408
1430 1429 1428 1427 1426 1426 1425 1425 1425 1425 1425 1425 1425 1425 1425 1425 1426 1426 1426 1426 1425 1425 1425 1424 1424 1423 1423 1423 1422 1422 1421 1421 1421 1420 1419 1418 1417 1415 1414 1412 1410 1407 1406
1426 1425 1424 1423 1423 1422 1422 1422 1422 1422 1422 1422 1422 1422 1422 1422 1422 1423 1423 1422 1422 1422 1422 1421 1421 1420 1420 1420 1419 1418 1418 1418 1417 1417 1416 1415 1413 1412 1411 1409 1407 1406 1403
1423 1422 1421 1420 1420 1419 1419 1419 1419 1419 1419 1419 1419 1419 1419 1419 1419 1419 1420 1419 1419 1419 1418 1418 1418 1418 1418 1417 1417 1416 1415 1415 1414 1413 1412 1411 1410 1409 1407 1406 1405 1404 1402
1419 1418 1418 1417 1417 1416 1416 1416 1416 1416 1416 1416 1416 1416 1417 1417 1417 1417 1417 1417 1416 1416 1416 1416 1415 1415 1415 1415 1414 1414 1413 1412 1411 1410 1409 1408 1407 1406 1404 1403 1402 1401 1400
1416 1415 1415 1414 1414 1414 1414 1414 1414 1414 1414 1414 1414 1414 1414 1414 1414 1414 1414 1414 1414 1414 1413 1413 1413 1413 1412 1412 1411 1411 1410 1410 1409 1408 1407 1405 1404 1403 1402 1401 1400 1399 1397
1413 1413 1412 1412 1412 1411 1411 1411 1411 1411 1411 1411 1412 1412 1412 1412 1412 1412 1412 1412 1412 1411 1411 1411 1410 1410 1409 1409 1408 1408 1408 1407 1406 1405 1404 1403 1402 1401 1399 1398 1397 1396 1394
1411 1410 1410 1410 1409 1409 1409 1409 1409 1409 1409 1409 1409 1410 1410 1410 1410 1410 1410 1410 1409 1409 1409 1408 1408 1407 1407 1406 1406 1406 1405 1405 1404 1403 1402 1401 1400 1399 1398 1396 1395 1393 1392
1408 1408 1408 1407 1407 1407 1407 1407 1407 1407 1407 1408 1408 1408 1408 1407 1408 1408 1408 1408 1407 1407 1406 1406 1405 1405 1405 1404 1404 1403 1403 1402 1402 1401 1400 1399 1398 1397 1396 1395 1393 1392 1391
1406 1406 1405 1405 1405 1405 1405 1405 1405 1406 1406 1406 1406 1406 1406 1406 1406 1406 1406 1406 1405 1405 1405 1404 1403 1403 1402 1402 1402 1401 1401 1400 1399 1399 1398 1397 1396 1395 1394 1393 1392 1391 1389
1404 1403 1403 1403 1403 1403 1403 1403 1403 1404 1404 1405 1405 1405 1405 1404 1404 1404 1404 1404 1404 1403 1403 1402 1401 1401 1400 1400 1400 1399 1399 1398 1397 1397 1396 1395 1395 1394 1393 1391 1390 1389 1388
1401 1401 1401 1401 1401 1401 1402 1402 1402 1402 1402 1402 1403 1403 1403 1403 1403 1402 1402 1402 1402 1401 1401 1400 1399 1399 1398 1398 1398 1397 1397 1396 1396 1395 1394 1393 1393 1392 1391 1390 1389 1388 1387
1399 1399 1399 1400 1400 1400 1400 1401 1401 1401 1401 1401 1401 1402 1402 1402 1402 1402 1401 1401 1400 1400 1399 1398 1398 1397 1397 1396 1396 1395 1395 1394 1394 1393 1392 1392 1391 1390 1389 1388 1387 1386 1386
1397 1397 1398 1398 1398 1399 1399 1400 1400 1400 1400 1400 1400 1401 1401 1401 1400 1400 1400 1399 1399 1398 1397 1397 1396 1395 1395 1394 1394 1393 1393 1392 1392 1391 1390 1390 1389 1389 1388 1387 1386 1385 1384
1395 1395 1396 1396 1397 1398 1398 1399 1399 1399 1400 1400 1400 1400 1400 1400 1399 1399 1399 1398 1397 1397 1396 1395 1394 1394 1393 1393 1392 1392 1391 1390 1390 1389 1389 1388 1388 1387 1387 1386 1385 1384 1383
1393 1394 1394 1395 1396 1397 1398 1398 1399 1399 1399 1399 1399 1399 1399 1399 1398 1398 1397 1397 1396 1395 1395 1394 1393 1392 1391 1391 1390 1390 1389 1388 1388 1388 1387 1387 1386 1386 1385 1385 1384 1383 1382
1392 1393 1393 1394 1395 1396 1397 1398 1398 1398 1398 1398 1398 1398 1398 1398 1397 1397 1396 1395 1395 1394 1393 1392 1391 1391 1390 1389 1389 1388 1387 1387 1387 1386 1386 1385 1385 1384 1384 1383 1383 1382 1382
1391 1392 1393 1394 1394 1395 1396 1397 1397 1397 1398 1398 1398 1397 1397 1397 1396 1396 1395 1394 1394 1393 1392 1391 1390 1389 1388 1388 1387 1386 1386 1385 1385 1385 1384 1384 1383 1383 1382 1382 1381 1381 1381
1390 1391 1392 1393 1394 1394 1395 1396 1396 1397 1397 1397 1397 1397 1396 1396 1395 1395 1394 1393 1392 1391 1391 1390 1389 1388 1387 1386 1385 1385 1384 1384 1383 1383 1383 1382 1382 1382 1381 1381 1380 1380 1380
1389 1390 1391 1392 1393 1394 1394 1395 1395 1396 1396 1396 1396 1396 1395 1395 1394 1394 1393 1392 1391 1390 1389 1388 1387 1387 1386 1385 1384 1383 1383 1382 1382 1382 1381 1381 1381 1380 1380 1379 1379 1379 1379